This is the latest recevied weather packets stored in our database for station/object KB4JHU-15. If no packets are shown the sender has not sent any weather packets the latest 10 day(s).
| Time | Temp. | Humidity | Pressure | Rain* | Wind** | Luminosity | Snow |
|---|---|---|---|---|---|---|---|
| 1788056567 | 25.56° C | 79% | - | 0 mm | - | - | - |
| 1788054766 | 26.11° C | 76% | - | 0 mm | - | - | - |
| 1788052965 | 27.22° C | 72% | - | 0 mm | - | - | - |
| 1788051164 | 29.44° C | 62% | - | 0 mm | - | - | - |
| 1788049363 | 30° C | 61% | - | 0 mm | - | - | - |
| 1788047562 | 30.56° C | 57% | - | 0 mm | - | - | - |
| 1788045761 | 31.11° C | 54% | - | 0 mm | - | - | - |
| 1788043960 | 31.67° C | 51% | - | 0 mm | - | - | - |
| 1788042159 | 31.67° C | 50% | - | 0 mm | - | - | - |
| 1788040358 | 32.78° C | 45% | - | 0 mm | - | - | - |
| 1788038557 | 34.44° C | 41% | - | 0 mm | - | - | - |
| 1788036756 | 34.44° C | 38% | - | 0 mm | - | - | - |
| 1788034955 | 33.89° C | 39% | - | 0 mm | - | - | - |
| 1788033154 | 32.78° C | 43% | - | 0 mm | - | - | - |
| 1788031353 | 32.22° C | 43% | - | 0 mm | - | - | - |
| 1788029552 | 33.33° C | 40% | - | 0 mm | - | - | - |
| 1788027751 | 31.67° C | 45% | - | 0 mm | - | - | - |
| 1788025950 | 31.67° C | 47% | - | 0 mm | - | - | - |
| 1788024149 | 32.22° C | 49% | - | 0 mm | - | - | - |
| 1788022348 | 31.11° C | 53% | - | 0 mm | - | - | - |
| 1788020547 | 30° C | 58% | - | 0 mm | - | - | - |
| 1788018746 | 29.44° C | 62% | - | 0 mm | - | - | - |
| 1788016945 | 28.33° C | 64% | - | 0 mm | - | - | - |
| 1788015144 | 27.78° C | 65% | - | 0 mm | - | - | - |
| 1788013343 | 27.78° C | 68% | - | 0 mm | - | - | - |
* Rain latest hour (hover to see other rain measurements)
** Current wind speed in m/s (hover to see current wind gust speed)